Regional Weather Roundup
Issued by NWS

Home | Current Version | Previous Version | Text Only | Print | Product List | Glossary On
Versions: 1 2 3 4 5 6 7 8 9 10 11 12 13 14 15 16 17 18 19 20 21 22 23 24 25 26 27 28 29 30 31 32 33 34 35 36 37 38 39 40 41 42 43 44 45 46 47 48 49 50
000
ASUS43 KMPX 272301
RWRMN
WEATHER ROUNDUP FOR MINNESOTA
NATIONAL WEATHER SERVICE TWIN CITIES/CHANHASSEN MN
600 PM CDT WED AUG 27 2014


NOTE: "FAIR" INDICATES FEW OR NO CLOUDS BELOW 12,000 FEET WITH NO
SIGNIFICANT WEATHER AND/OR OBSTRUCTIONS TO VISIBILITY. N/A MEANS
CURRENT SKY AND/OR WEATHER CONDITIONS ARE NOT AVAILABLE.

MNZ060>063-068>070-280000-
   Twin Cities Metro

CITY           SKY/WX    TMP DP  RH WIND       PRES   REMARKS
TWIN CITIES    PTSUNNY   76  53  44 VRB3      30.12F
ST PAUL        MOSUNNY   75  56  51 NE6       30.13F
CRYSTAL        MOSUNNY   76  57  51 NE5       30.11F
BLAINE         PTSUNNY   75  57  53 NE6       30.14S
LAKEVILLE      SUNNY     73  57  56 CALM      30.13F
EDEN PRAIRIE   MOSUNNY   77  54  44 CALM      30.11F
SOUTH ST PAUL  MOSUNNY   75  56  50 E5        30.12F
LAKE ELMO      FAIR      73  57  56 CALM      30.14F
$$
MNZ001>005-007-008-013>017-022>024-027-028-280000-
   Northwest Minnesota

CITY           SKY/WX    TMP DP  RH WIND       PRES   REMARKS
BEMIDJI        MOSUNNY   71  51  49 SW3       30.13F
HALLOCK        SUNNY     73  52  46 S10       30.08F
ROSEAU         SUNNY     73  52  46 S6        30.11S
WARROAD        SUNNY     70  54  56 E7        30.12F
THIEF RVR FALL SUNNY     72  50  46 SW6       30.11F
CROOKSTON      SUNNY     72  55  56 S8        30.11F
FOSSTON        SUNNY     73  55  53 CALM      30.13F
DETROIT LAKES  PTSUNNY   70  57  64 SW7       30.15S
MOORHEAD       PTSUNNY   73  63  68 S6        30.11F
PARK RAPIDS    SUNNY     69  57  65 S8        30.14F
MAHNOMEN       FAIR      70  59  68 S5        30.12F
$$
MNZ006-009>011-018-025>026-280000-
   North Central Minnesota

CITY           SKY/WX    TMP DP  RH WIND       PRES   REMARKS
BAUDETTE       SUNNY     70  51  51 NW7       30.12
FLAG ISLAND    SUNNY     68  52  56 S8        30.11F
INTL FALLS     PTSUNNY   69  51  52 NW6       30.12F
WASKISH        SUNNY     70  54  56 CALM      30.13F
BIG FORK       MOSUNNY   72  52  49 SW7       30.14F
LONGVILLE      MOSUNNY   72  57  60 S7        30.14F
GRAND RAPIDS   MOSUNNY   70  52  52 NW6       30.15S
CRANE LAKE     PTSUNNY   66  52  59 CALM      30.15S
ORR            MOSUNNY   70  48  46 CALM      30.12S
COOK           PTSUNNY   66  52  59 CALM      30.15S
WALKER         FAIR      69  54  58 SW5       30.14S
$$
MNZ012-019>021-037-280000-
   Northeast Minnesota

CITY           SKY/WX    TMP DP  RH WIND       PRES   REMARKS
DULUTH         MOSUNNY   70  48  45 W8        30.15F
ELY            MOSUNNY   66  48  52 NW8       30.14F
HIBBING        MOSUNNY   71  49  45 W6        30.14F
EVELETH        SUNNY     70  46  43 W3        30.16S
DULUTH HARBOR  SUNNY     70  61  73 E3        30.14F
TWO HARBORS    MOSUNNY   66  52  59 SE5       30.13F
SILVER BAY     SUNNY     63  55  77 S5        30.13F
GRAND MARAIS     N/A     60  54  80 SW6       30.15F
G MARAIS ARPRT MOSUNNY   61  46  59 S3        30.17S
$$
MNZ029>031-032-039>041-046>048-054>057-064-280000-
   West Central Minnesota

CITY           SKY/WX    TMP DP  RH WIND       PRES   REMARKS
FERGUS FALLS   SUNNY     73  55  53 S3        30.11F
WHEATON        MOSUNNY   72  59  64 SE9       30.12S
MORRIS         MOSUNNY   75  57  53 SE8       30.10F
ALEXANDRIA     PTSUNNY   72  58  61 E7        30.14F
ELBOW LAKE     FAIR      73  58  61 SE3       30.12F
WADENA         PTSUNNY   68  57  68 SE5       30.14F
GLENWOOD       MOSUNNY   73  61  64 E7        30.14F
APPLETON       MOSUNNY   77  59  53 SE7       30.10S
BENSON         MOSUNNY   75  59  57 S7        30.11F
MADISON        MOSUNNY   75  63  64 E7        30.10S
WILLMAR        FAIR      75  57  53 E7        30.13F
$$
MNZ033>034-036-042>043-049>051-058-059-280000-
   Central Minnesota

CITY           SKY/WX    TMP DP  RH WIND       PRES   REMARKS
ST CLOUD       MOSUNNY   76  56  49 CALM      30.13F
SAUK CENTRE    MOCLDY    71  57  60 CALM      30.14F
PAYNESVILLE    MOSUNNY   70  56  61 E3        30.14S
AITKIN         CLOUDY    70  59  68 S6        30.15F
PINE RIVER     PTSUNNY   66  59  77 S5        30.18S
BRAINERD       CLOUDY    68  57  68 CALM      30.15F
STAPLES        SUNNY     70  57  64 S3        30.15S
LONG PRAIRIE   CLOUDY    70  55  60 CALM      30.15F
LITTLE FALLS   CLOUDY    70  55  60 CALM      30.15F
LITCHFIELD     MOSUNNY   73  59  60 CALM      30.13F
BUFFALO        MOSUNNY   74  56  53 N5        30.14F
MAPLE LAKE     MOSUNNY   75  60  59 E3        30.14F
$$
MNZ037-044-045-052-053-280000-
   East Central Minnesota

CITY           SKY/WX    TMP DP  RH WIND       PRES   REMARKS
PRINCETON      CLOUDY    73  57  56 N5        30.15F
MORA           SUNNY     70  55  60 CALM      30.17S
CAMBRIDGE      MOSUNNY   73  57  56 CALM      30.14S
RUSH CITY      SUNNY     71  55  58 CALM      30.15F
MOOSE LAKE     SUNNY     70  54  56 SW5       30.14S
HINCKLEY       FAIR      70  55  60 CALM      30.15F
CLOQUET        SUNNY     70  50  49 W3        30.15F
MCGREGOR       SUNNY     68  55  64 S9        30.16S
$$
MNZ071>073-080-081-089-090-097-098-280000-
   Southwest Minnesota

CITY           SKY/WX    TMP DP  RH WIND       PRES   REMARKS
MONTEVIDEO     MOSUNNY   79  61  53 S8        30.11F
GRANITE FALLS  MOSUNNY   76  58  54 E6        30.11F
CANBY          PTSUNNY   74  60  61 SE7       30.10F
OLIVIA         MOSUNNY   73  57  56 SE7       30.11F
PIPESTONE      MOSUNNY   72  63  73 S9        30.11F
WINDOM         MOSUNNY   73  61  64 SE7       30.12F
JACKSON        MOSUNNY   73  61  64 SE6       30.13F
TRACY          SUNNY     75  61  60 SE9       30.12S
SLAYTON        MOSUNNY   72  62  71 CALM      30.13S
$$
MNZ065>067-074>077-082>085-091>093-280000-
   South Central Minnesota

CITY           SKY/WX    TMP DP  RH WIND       PRES   REMARKS
MANKATO        SUNNY     73  55  53 SE6       30.13S
NEW ULM        SUNNY     73  57  56 E6        30.12F
ST JAMES       SUNNY     77  59  53 CALM      30.13S
GLENCOE        MOSUNNY   76  55  47 SE5       30.12F
FARIBAULT      MOSUNNY   75  54  46 E3        30.14S
OWATONNA       MOSUNNY   73  57  56 SE5       30.13F
WASECA         MOSUNNY   72  52  49 SE6       30.14F
ALBERT LEA     PTSUNNY   73  57  56 E8        30.13F
$$
MNZ078>079-086>088-094>096-280000-
   Southeast Minnesota

CITY           SKY/WX    TMP DP  RH WIND       PRES   REMARKS
ROCHESTER      PTSUNNY   73  59  61 E3        30.15F
RED WING       MOSUNNY   75  54  46 S5        30.12S
STANTON        PTSUNNY   74  58  58 E5        30.12F
DODGE CENTER   MOSUNNY   73  61  64 CALM      30.14F
WINONA         PTSUNNY   73  57  56 CALM      30.13F
AUSTIN         PTSUNNY   72  59  64 E5        30.13F
PRESTON        CLOUDY    70  62  74 CALM      30.15F
$$
ABBREVIATIONS USED IN REMARKS
   TC - TEMPERATURES IN CELSIUS
  WCI - WIND CHILL INDEX
   HX - HEAT INDEX
  VSB - VISIBILITY
$$



USA.gov is the U.S. government's official web portal to all federal, state and local government web resources and services.